METEOR 2-17 DEB

Satellite information

Favourite Embed

Satellite Type and Status

DEBRISIN ORBIT

Key statistics

Satellite METEOR 2-17 DEB at a glance.

Uptime

13832

Days in orbit

Revolutions

≈ 14.0

Per day

Orbit

LEO

Low Earth Orbit

Inclination

82.5

Latest

Satellite identification and parameters

Extended collection of information and parameters for METEOR 2-17 DEB.

Object identification

Identified? True

Debris? True

Object name: METEOR 2-17 DEB

International designator: 1988-005AF

Object number (NORAD): 35371

Object ID (CCSDS): 35371

Country: COMMONWEALTH OF INDEPENDENT STATES (CIS)

Current information (Y/N): Y

RCS size: SMALL

Orbital parameters

Period: 102.515 minutes

Inclination: 82.51 deg

SMA: 7255.808 km

Apoapsis: 890.547 km

Periapsis: 864.798 km

RAAN: 25.315 deg

Eccentricy: 0.00177437

Argument of periapsis: 45.9121 deg

Mean anomaly: 314.3508 deg

Mean motion: 14.04669377 rev/day

Mean motion (dot): 0.00003555 rev/day2

B* drag term: 0.0022100838 1/REarth

Two-line elements (TLE)

Creation date: Dec. 11, 2025, 7:14 p.m.

Reference frame: TEME

Reference center: EARTH

Epoch: Dec. 11, 2025, 9:53 a.m. UTC

TLE line 0: 0 METEOR 2-17 DEB

TLE line 1: 1 35371U 88005AF 25345.41213492 .00003555 00000-0 22101-2 0 9991

TLE line 2: 2 35371 82.5100 25.3150 0017744 45.9121 314.3508 14.04669377634147

Live tracking on map

Real-time ground track for satellite METEOR 2-17 DEB.

In-orbit conjunctions

A list of the most updated potential collisions computed for object METEOR 2-17 DEB.

Target Orbit TCA Probability of collision Miss distance Type
COSMOS 198 LEO 2024-12-25 08:02:07 0.0004458146 114.0 (m) PAYLOAD
CZ-6A DEB SSO 2024-09-27 06:52:33 0.0001161428 529.0 (m) DEBRIS
CZ-6A DEB SSO 2024-09-26 18:52:40 0.000380835 361.0 (m) DEBRIS
THORAD AGENA D DEB SSO 2024-08-17 01:48:45 0.0001142487 113.0 (m) DEBRIS

Associated space launch

Second generation soviet meteorological satellite

METEOR 2-17 DEB was lifted into orbit during the mission ‘Tsiklon-3 | Meteor-2 17’, on board a Tsiklon-3 space rocket.

The launch took place on Jan. 30, 1988, 10:59 a.m. from 32/1.

For more information about the launch, click the button.

Launch to space Tsiklon-3 | Meteor-2 17
Tsiklon-3 | Meteor-2 17

Agency: N/A

Status: Launch Successful

Launch date: Jan. 30, 1988, 10:59 a.m. UTC

Rocket: Tsiklon-3

Launch pad: 32/1

Location: Plesetsk Cosmodrome, Russian Federation

...

Latest news about this satellite

There are no fresh news available about this satellite. Check back as we update our databases every day.


Newsletter sign-up

Weekly statistics, charts and insights to help you stay on top of the space industry.